Time,TemperatureF,DewpointF,PressureIn,WindDirection,WindDirectionDegrees,WindSpeedMPH,WindSpeedGustMPH,Humidity,HourlyPrecipIn,Conditions,Clouds,dailyrainin,SoftwareType,DateUTC
2013-10-17 00:14:00,62.2,58.6,29.86,West,270,0.0,-999.0,88,-99.99,,,0.00,Acu-Link.com,2013-10-17 04:14:00,
2013-10-17 00:29:00,62.2,58.6,29.85,West,270,0.0,-999.0,88,-99.99,,,0.00,Acu-Link.com,2013-10-17 04:29:00,
2013-10-17 00:44:00,62.1,61.5,29.85,West,270,0.0,-999.0,98,-99.99,,,0.00,Acu-Link.com,2013-10-17 04:44:00,
2013-10-17 00:59:00,61.9,61.3,29.85,West,270,0.0,-999.0,98,-99.99,,,0.00,Acu-Link.com,2013-10-17 04:59:00,
2013-10-17 01:15:00,61.9,61.3,29.85,West,270,0.0,-999.0,98,-99.99,,,0.00,Acu-Link.com,2013-10-17 05:15:00,
2013-10-17 01:30:00,61.9,61.3,29.85,West,270,0.0,-999.0,98,-99.99,,,0.00,Acu-Link.com,2013-10-17 05:30:00,
2013-10-17 01:45:00,61.5,60.9,29.85,West,270,0.0,-999.0,98,-99.99,,,0.00,Acu-Link.com,2013-10-17 05:45:00,
2013-10-17 02:00:00,61.5,60.9,29.85,West,270,0.0,-999.0,98,-99.99,,,0.00,Acu-Link.com,2013-10-17 06:00:00,
2013-10-17 02:15:00,61.5,60.9,29.85,West,270,0.0,-999.0,98,-99.99,,,0.00,Acu-Link.com,2013-10-17 06:15:00,
2013-10-17 02:32:00,61.5,60.9,29.85,West,270,0.0,-999.0,98,-99.99,,,0.00,Acu-Link.com,2013-10-17 06:32:00,
2013-10-17 02:47:00,61.3,60.7,29.84,West,270,0.0,-999.0,98,-99.99,,,0.00,Acu-Link.com,2013-10-17 06:47:00,
2013-10-17 03:03:00,61.2,60.6,29.84,West,270,0.0,-999.0,98,-99.99,,,0.00,Acu-Link.com,2013-10-17 07:03:00,
2013-10-17 03:18:00,61.2,60.6,29.84,West,270,0.0,-999.0,98,-99.99,,,0.00,Acu-Link.com,2013-10-17 07:18:00,
2013-10-17 03:33:00,61.2,60.6,29.84,West,270,0.0,-999.0,98,-99.99,,,0.00,Acu-Link.com,2013-10-17 07:33:00,
2013-10-17 03:49:00,61.2,60.6,29.84,West,270,0.0,-999.0,98,-99.99,,,0.00,Acu-Link.com,2013-10-17 07:49:00,
2013-10-17 04:04:00,60.8,60.2,29.84,West,270,0.0,-999.0,98,-99.99,,,0.00,Acu-Link.com,2013-10-17 08:04:00,
2013-10-17 04:20:00,60.4,59.8,29.84,West,270,0.0,-999.0,98,-99.99,,,0.00,Acu-Link.com,2013-10-17 08:20:00,
2013-10-17 04:35:00,60.3,59.7,29.83,West,270,0.0,-999.0,98,-99.99,,,0.00,Acu-Link.com,2013-10-17 08:35:00,
2013-10-17 04:51:00,60.4,59.8,29.83,West,270,0.0,-999.0,98,-99.99,,,0.00,Acu-Link.com,2013-10-17 08:51:00,
2013-10-17 05:06:00,60.6,60.0,29.83,West,270,0.0,-999.0,98,-99.99,,,0.00,Acu-Link.com,2013-10-17 09:06:00,
2013-10-17 05:21:00,60.6,60.0,29.83,West,270,0.0,-999.0,98,-99.99,,,0.00,Acu-Link.com,2013-10-17 09:21:00,
2013-10-17 05:37:00,61.2,60.6,29.82,West,270,0.0,-999.0,98,-99.99,,,0.00,Acu-Link.com,2013-10-17 09:37:00,
2013-10-17 05:52:00,61.2,60.6,29.83,West,270,0.0,-999.0,98,-99.99,,,0.00,Acu-Link.com,2013-10-17 09:52:00,
2013-10-17 06:07:00,61.3,60.7,29.83,West,270,0.0,-999.0,98,-99.99,,,0.00,Acu-Link.com,2013-10-17 10:07:00,
2013-10-17 06:22:00,61.3,60.7,29.84,West,270,0.0,-999.0,98,-99.99,,,0.00,Acu-Link.com,2013-10-17 10:22:00,
2013-10-17 06:37:00,61.5,60.9,29.84,West,270,0.0,-999.0,98,-99.99,,,0.00,Acu-Link.com,2013-10-17 10:37:00,
2013-10-17 06:52:00,61.7,61.1,29.83,West,270,0.0,-999.0,98,-99.99,,,0.00,Acu-Link.com,2013-10-17 10:52:00,
2013-10-17 07:07:00,61.7,61.1,29.83,West,270,0.0,-999.0,98,-99.99,,,0.00,Acu-Link.com,2013-10-17 11:07:00,
2013-10-17 07:22:00,61.7,61.1,29.83,West,270,0.0,-999.0,98,-99.99,,,0.00,Acu-Link.com,2013-10-17 11:22:00,
2013-10-17 07:37:00,61.7,61.1,29.83,West,270,0.0,-999.0,98,-99.99,,,0.00,Acu-Link.com,2013-10-17 11:37:00,
2013-10-17 07:53:00,61.7,61.1,29.84,West,270,0.0,-999.0,98,-99.99,,,0.00,Acu-Link.com,2013-10-17 11:53:00,
2013-10-17 08:08:00,62.1,61.5,29.84,West,270,0.0,-999.0,98,-99.99,,,0.00,Acu-Link.com,2013-10-17 12:08:00,
2013-10-17 08:23:00,62.4,61.8,29.84,West,270,0.0,-999.0,98,-99.99,,,0.00,Acu-Link.com,2013-10-17 12:23:00,
2013-10-17 08:38:00,62.8,62.2,29.84,West,270,0.0,-999.0,98,-99.99,,,0.00,Acu-Link.com,2013-10-17 12:38:00,
2013-10-17 08:53:00,63.1,62.5,29.85,West,270,0.0,-999.0,98,-99.99,,,0.00,Acu-Link.com,2013-10-17 12:53:00,
2013-10-17 09:08:00,63.7,63.1,29.84,West,270,0.0,-999.0,98,-99.99,,,0.00,Acu-Link.com,2013-10-17 13:08:00,
2013-10-17 09:23:00,64.4,63.8,29.85,West,270,0.0,-999.0,98,-99.99,,,0.00,Acu-Link.com,2013-10-17 13:23:00,
2013-10-17 09:38:00,65.5,62.2,29.85,West,270,0.0,-999.0,89,-99.99,,,0.00,Acu-Link.com,2013-10-17 13:38:00,
2013-10-17 09:53:00,66.0,61.4,29.84,SSE,157,0.0,-999.0,85,-99.99,,,0.00,Acu-Link.com,2013-10-17 13:53:00,
2013-10-17 10:09:00,66.6,61.9,29.85,North,0,0.0,-999.0,85,-99.99,,,0.00,Acu-Link.com,2013-10-17 14:09:00,
2013-10-17 10:24:00,67.3,62.0,29.86,South,180,0.0,-999.0,83,-99.99,,,0.00,Acu-Link.com,2013-10-17 14:24:00,
2013-10-17 10:39:00,68.0,62.3,29.85,WNW,292,0.0,-999.0,82,-99.99,,,0.00,Acu-Link.com,2013-10-17 14:39:00,
2013-10-17 10:54:00,68.9,62.8,29.85,SSE,157,1.1,-999.0,81,-99.99,,,0.00,Acu-Link.com,2013-10-17 14:54:00,
2013-10-17 11:09:00,68.9,62.5,29.85,SW,225,0.0,-999.0,80,-99.99,,,0.00,Acu-Link.com,2013-10-17 15:09:00,
2013-10-17 11:24:00,69.8,63.3,29.84,South,180,1.7,-999.0,80,-99.99,,,0.00,Acu-Link.com,2013-10-17 15:24:00,
2013-10-17 11:39:00,70.7,63.1,29.83,SW,225,0.0,-999.0,77,-99.99,,,0.00,Acu-Link.com,2013-10-17 15:39:00,
2013-10-17 11:54:00,70.7,62.8,29.84,NE,45,1.7,-999.0,76,-99.99,,,0.00,Acu-Link.com,2013-10-17 15:54:00,
2013-10-17 12:09:00,70.5,62.2,29.83,East,90,1.7,-999.0,75,-99.99,,,0.00,Acu-Link.com,2013-10-17 16:09:00,
2013-10-17 12:25:00,71.8,63.1,29.83,West,270,1.7,-999.0,74,-99.99,,,0.00,Acu-Link.com,2013-10-17 16:25:00,
2013-10-17 12:40:00,71.8,63.1,29.82,ESE,112,0.0,-999.0,74,-99.99,,,0.00,Acu-Link.com,2013-10-17 16:40:00,
2013-10-17 12:55:00,71.6,62.5,29.82,West,270,0.0,-999.0,73,-99.99,,,0.00,Acu-Link.com,2013-10-17 16:55:00,
2013-10-17 13:10:00,71.8,62.7,29.81,SSW,202,0.0,-999.0,73,-99.99,,,0.00,Acu-Link.com,2013-10-17 17:10:00,
2013-10-17 13:25:00,72.0,64.0,29.81,SSW,202,1.1,-999.0,76,-99.99,,,0.00,Acu-Link.com,2013-10-17 17:25:00,
2013-10-17 13:40:00,71.4,64.5,29.80,East,90,0.0,-999.0,79,-99.99,,,0.00,Acu-Link.com,2013-10-17 17:40:00,
2013-10-17 13:55:00,70.0,63.9,29.80,South,180,0.0,-999.0,81,-99.99,,,0.00,Acu-Link.com,2013-10-17 17:55:00,
2013-10-17 14:10:00,68.5,64.1,29.80,WNW,292,1.7,-999.0,86,-99.99,,,0.01,Acu-Link.com,2013-10-17 18:10:00,
2013-10-17 14:25:00,67.8,64.1,29.80,ESE,112,0.0,-999.0,88,-99.99,,,0.02,Acu-Link.com,2013-10-17 18:25:00,
2013-10-17 14:41:00,67.3,66.7,29.79,East,90,0.0,-999.0,98,-99.99,,,0.08,Acu-Link.com,2013-10-17 18:41:00,
2013-10-17 14:56:00,66.7,66.1,29.78,South,180,1.7,-999.0,98,-99.99,,,0.14,Acu-Link.com,2013-10-17 18:56:00,
2013-10-17 15:11:00,66.6,66.0,29.77,WSW,247,1.7,-999.0,98,-99.99,,,0.24,Acu-Link.com,2013-10-17 19:11:00,
2013-10-17 15:26:00,66.7,66.1,29.77,West,270,0.0,-999.0,98,-99.99,,,0.24,Acu-Link.com,2013-10-17 19:26:00,
2013-10-17 15:41:00,67.1,66.5,29.77,SSW,202,1.7,-999.0,98,-99.99,,,0.24,Acu-Link.com,2013-10-17 19:41:00,
2013-10-17 15:56:00,67.1,66.5,29.77,SE,135,1.1,-999.0,98,-99.99,,,0.25,Acu-Link.com,2013-10-17 19:56:00,
2013-10-17 16:11:00,67.1,66.5,29.77,SSE,157,0.0,-999.0,98,-99.99,,,0.25,Acu-Link.com,2013-10-17 20:11:00,
2013-10-17 16:26:00,67.3,66.7,29.77,West,270,1.1,-999.0,98,-99.99,,,0.25,Acu-Link.com,2013-10-17 20:26:00,
2013-10-17 16:41:00,67.3,66.7,29.77,West,270,1.1,-999.0,98,-99.99,,,0.25,Acu-Link.com,2013-10-17 20:41:00,
2013-10-17 16:56:00,67.3,66.7,29.76,WSW,247,0.0,-999.0,98,-99.99,,,0.25,Acu-Link.com,2013-10-17 20:56:00,
2013-10-17 17:12:00,67.1,66.5,29.76,SSE,157,0.0,-999.0,98,-99.99,,,0.25,Acu-Link.com,2013-10-17 21:12:00,
2013-10-17 17:27:00,67.1,66.5,29.77,SSW,202,0.0,-999.0,98,-99.99,,,0.25,Acu-Link.com,2013-10-17 21:27:00,
2013-10-17 17:42:00,67.1,66.5,29.76,SE,135,1.1,-999.0,98,-99.99,,,0.25,Acu-Link.com,2013-10-17 21:42:00,
2013-10-17 17:57:00,67.3,66.7,29.76,SW,225,1.7,-999.0,98,-99.99,,,0.25,Acu-Link.com,2013-10-17 21:57:00,
2013-10-17 18:12:00,67.3,66.7,29.76,SE,135,0.0,-999.0,98,-99.99,,,0.25,Acu-Link.com,2013-10-17 22:12:00,
2013-10-17 18:27:00,67.3,66.7,29.77,ESE,112,0.0,-999.0,98,-99.99,,,0.25,Acu-Link.com,2013-10-17 22:27:00,
2013-10-17 18:42:00,67.1,66.5,29.77,SE,135,0.0,-999.0,98,-99.99,,,0.25,Acu-Link.com,2013-10-17 22:42:00,
2013-10-17 18:57:00,66.9,66.3,29.77,SE,135,0.0,-999.0,98,-99.99,,,0.25,Acu-Link.com,2013-10-17 22:57:00,
2013-10-17 19:12:00,66.7,66.1,29.77,SE,135,0.0,-999.0,98,-99.99,,,0.25,Acu-Link.com,2013-10-17 23:12:00,
2013-10-17 19:28:00,66.9,66.3,29.77,SSE,157,0.0,-999.0,98,-99.99,,,0.25,Acu-Link.com,2013-10-17 23:28:00,
2013-10-17 19:43:00,66.9,66.3,29.78,North,0,0.0,-999.0,98,-99.99,,,0.25,Acu-Link.com,2013-10-17 23:43:00,
2013-10-17 19:58:00,66.9,66.3,29.78,SSW,202,0.0,-999.0,98,-99.99,,,0.25,Acu-Link.com,2013-10-17 23:58:00,
2013-10-17 20:13:00,66.9,66.3,29.78,ESE,112,0.0,-999.0,98,-99.99,,,0.25,Acu-Link.com,2013-10-18 00:13:00,
2013-10-17 20:28:00,67.1,66.5,29.78,ESE,112,0.0,-999.0,98,-99.99,,,0.25,Acu-Link.com,2013-10-18 00:28:00,
2013-10-17 20:43:00,66.9,66.3,29.78,ESE,112,0.0,-999.0,98,-99.99,,,0.25,Acu-Link.com,2013-10-18 00:43:00,
2013-10-17 20:58:00,66.7,66.1,29.78,NW,315,0.0,-999.0,98,-99.99,,,0.25,Acu-Link.com,2013-10-18 00:58:00,
2013-10-17 21:13:00,66.6,66.0,29.78,SE,135,0.0,-999.0,98,-99.99,,,0.25,Acu-Link.com,2013-10-18 01:13:00,
2013-10-17 21:28:00,65.8,65.2,29.78,ESE,112,0.0,-999.0,98,-99.99,,,0.25,Acu-Link.com,2013-10-18 01:28:00,
2013-10-17 21:44:00,65.5,64.9,29.78,NNE,22,0.0,-999.0,98,-99.99,,,0.25,Acu-Link.com,2013-10-18 01:44:00,
2013-10-17 21:59:00,65.5,64.9,29.79,East,90,0.0,-999.0,98,-99.99,,,0.25,Acu-Link.com,2013-10-18 01:59:00,
2013-10-17 22:14:00,64.9,64.3,29.79,ESE,112,0.0,-999.0,98,-99.99,,,0.25,Acu-Link.com,2013-10-18 02:14:00,
2013-10-17 22:29:00,64.6,64.0,29.80,ESE,112,0.0,-999.0,98,-99.99,,,0.25,Acu-Link.com,2013-10-18 02:29:00,
2013-10-17 22:44:00,64.4,63.8,29.79,NNE,22,0.0,-999.0,98,-99.99,,,0.25,Acu-Link.com,2013-10-18 02:44:00,
2013-10-17 22:59:00,64.2,63.6,29.80,West,270,0.0,-999.0,98,-99.99,,,0.25,Acu-Link.com,2013-10-18 02:59:00,
2013-10-17 23:14:00,64.2,63.6,29.80,West,270,0.0,-999.0,98,-99.99,,,0.25,Acu-Link.com,2013-10-18 03:14:00,
2013-10-17 23:29:00,64.0,63.4,29.80,West,270,0.0,-999.0,98,-99.99,,,0.25,Acu-Link.com,2013-10-18 03:29:00,
2013-10-17 23:44:00,64.2,63.6,29.79,SSW,202,0.0,-999.0,98,-99.99,,,0.25,Acu-Link.com,2013-10-18 03:44:00,